Location: Caualo
(45.5667°N, 10.8667°E)
Time: 10:51:53
(UTC+00:00)

In-Cosmos 22 Rocket - Pass Details

Date: 03 October 2020
Orbit: 790 x 889 km, 81.2° (Epoch: 20 October)

Event Time Altitude Azimuth Distance (km) Brightness Sun altitude
Rises 19:07:10 0° 3° (N) 3,330 7.5 -24.1°
Reaches altitude 10° 19:10:39 10° 26° (NNE) 2,380 6.5 -24.7°
Enters shadow 19:11:19 12° 32° (NNE) 2,249 6.3 -24.8°
